Date,TemperatureHighF,TemperatureAvgF,TemperatureLowF,DewpointHighF,DewpointAvgF,DewpointLowF,HumidityHigh,HumidityAvg,HumidityLow,PressureMaxIn,PressureMinIn,WindSpeedMaxMPH,WindSpeedAvgMPH,GustSpeedMaxMPH,PrecipitationSumIn
2013-3-1,37,35,32,-100,-100,-100,0,0,100,0.00,40.00,0,-999,0,0.00
2013-3-2,44,35,29,-100,-100,-100,0,0,100,0.00,40.00,0,-999,0,0.01
2013-3-3,40,34,30,-100,-100,-100,0,0,100,0.00,40.00,0,-999,0,0.07
2013-3-4,34,31,28,-100,-100,-100,0,0,100,0.00,40.00,0,-999,0,0.01
2013-3-5,43,35,29,-100,-100,-100,0,0,100,0.00,40.00,0,-999,0,0.00
2013-3-6,37,35,31,-100,-100,-100,0,0,100,0.00,40.00,0,-999,0,0.00
2013-3-7,34,32,30,-100,-100,-100,0,0,100,0.00,40.00,0,-999,0,0.00
2013-3-8,45,36,29,-100,-100,-100,0,0,100,0.00,40.00,0,-999,0,0.00
2013-3-9,53,38,25,-100,-100,-100,0,0,100,0.00,40.00,0,-999,0,0.00
2013-3-10,43,32,21,-100,-100,-100,0,0,100,0.00,40.00,0,-999,0,0.00
2013-3-11,53,39,30,-100,-100,-100,0,0,100,0.00,40.00,0,-999,0,0.00
2013-3-12,47,43,38,-100,-100,-100,0,0,100,0.00,40.00,0,-999,0,0.29
2013-3-13,48,42,32,-100,-100,-100,0,0,100,0.00,40.00,0,-999,0,0.26
2013-3-14,35,31,19,-100,-100,-100,0,0,100,0.00,40.00,0,-999,0,0.00
2013-3-15,36,26,17,-100,-100,-100,0,0,100,0.00,40.00,0,-999,0,0.02
2013-3-16,32,29,23,-100,-100,-100,0,0,100,0.00,40.00,0,-999,0,0.04
2013-3-17,30,25,16,-100,-100,-100,0,0,100,0.00,40.00,0,-999,0,0.00
2013-3-18,36,24,7,-100,-100,-100,0,0,100,0.00,40.00,0,-999,0,0.00
2013-3-19,31,28,24,-100,-100,-100,0,0,100,0.00,40.00,0,-999,0,0.26
2013-3-20,35,29,23,-100,-100,-100,0,0,100,0.00,40.00,0,-999,0,0.01
2013-3-21,39,29,20,-100,-100,-100,0,0,100,0.00,40.00,0,-999,0,0.00
2013-3-22,37,29,19,-100,-100,-100,0,0,100,0.00,40.00,0,-999,0,0.00
2013-3-23,39,33,26,-100,-100,-100,0,0,100,0.00,40.00,0,-999,0,0.00
2013-3-24,45,37,28,-100,-100,-100,0,0,100,0.00,40.00,0,-999,0,0.00
2013-3-25,41,33,23,-100,-100,-100,0,0,100,0.00,40.00,0,-999,0,0.00
2013-3-26,48,39,31,-100,-100,-100,0,0,100,0.00,40.00,0,-999,0,0.00
2013-3-27,50,41,31,-100,-100,-100,0,0,100,0.00,40.00,0,-999,0,0.00
2013-3-28,47,40,33,-100,-100,-100,0,0,100,0.00,40.00,0,-999,0,0.01
2013-3-29,52,44,36,-100,-100,-100,0,0,100,0.00,40.00,0,-999,0,0.00
2013-3-30,52,44,31,-100,-100,-100,0,0,100,0.00,40.00,0,-999,0,0.00
2013-3-31,55,41,25,-100,-100,-100,0,0,100,0.00,40.00,0,-999,0,0.00